Starlink 33925

operational
NORAD ID: 63793 Int'l Des: 2025-091 Owner: SPXS Country: US Constellation: starlink
LEOCIRCULAR

About Starlink 33925

Description loading...

Live Position

Loading 3D Globe...

Upcoming Passes

Altitude History

Altitude vs Time

uPlot chart will show altitude changes over time

Two-Line Element Set

1 63793U 25091U 25258.44810855 .00068748 00000-0 24771-2 0 9998
2 63793 43.0014 321.9899 0001717 118.4140 241.6885 15.27678534 22217
Epoch: Sep 15, 2025 • Age: 23 hours

Current Status

Altitude 484.2 km
Velocity 7.62 km/s
Sub-Earth Point -12.42°S, 10.83°E
Launch Date May 2, 2025
Age 0.3 years
Type internet

Technical Details

Classification Payload
Mass 575.00 kg
Dry Mass 530.00 kg
Total Mass 575.00 kg
Length 0.30 m
Diameter 4.10 m
Span 29.00 m
Shape Box + pan
Manufacturer SPXS
Bus Type Starlink V2MO
Phase Status In Orbit
Owner/State SPXS/US

Large Constellations

Loading constellations...